When you browse on this site, cookies collect data to enhance your experience and personalize the content and advertising you see.
Visit our Privacy Policy to learn more. By continuing to use the site, you agree to this use of cookies and data.
  • In Spain
  • List of Countries
  • For 7 days
  • Water Temperature
  • Satellite Maps
  • Weather Map
  • Weather Widgets
  • user-avatar
    Login

    Hourly Weather Borodenki

    Today, 19 July, Friday

    Time Temperature Precipitation Wind Pressure Humidity
    00:00 +13°C° 1 mm 4 mps 736 mmHg 98%
    01:00 +13°C° 1 mm 4 mps 736 mmHg 97%
    02:00 +13°C° 1 mm 4 mps 736 mmHg 97%
    03:00 +13°C° 0.6 mm 4 mps 736 mmHg 97%
    04:00 +14°C° 0.6 mm 4 mps 736 mmHg 97%
    05:00 +14°C° 0.6 mm 4 mps 736 mmHg 97%
    06:00 +14°C° 0.2 mm 4 mps 737 mmHg 97%
    07:00 +14°C° 0.2 mm 4 mps 737 mmHg 96%
    08:00 +14°C° 0.2 mm 4 mps 738 mmHg 96%
    09:00 +15°C° 0.4 mm 5 mps 738 mmHg 94%
    10:00 +15°C° 0.4 mm 6 mps 739 mmHg 93%
    11:00 +15°C° 0.4 mm 6 mps 739 mmHg 91%
    12:00 +16°C° 0.2 mm 6 mps 739 mmHg 89%
    13:00 +16°C° 0.2 mm 6 mps 739 mmHg 87%
    14:00 +16°C° 0.2 mm 6 mps 740 mmHg 84%
    15:00 +17°C° 0 mm 6 mps 740 mmHg 81%
    16:00 +17°C° 0 mm 5 mps 740 mmHg 78%
    17:00 +17°C° 0 mm 5 mps 741 mmHg 76%
    18:00 +18°C° 0 mm 4 mps 741 mmHg 78%
    19:00 +17°C° 0 mm 4 mps 741 mmHg 81%
    20:00 +16°C° 0 mm 3 mps 741 mmHg 84%
    21:00 +14°C° 0 mm 3 mps 742 mmHg 86%
    22:00 +14°C° 0 mm 3 mps 742 mmHg 88%
    23:00 +13°C° 0 mm 3 mps 742 mmHg 90%

    Tomorrow, 20 July, Saturday

    Time Temperature Precipitation Wind Pressure Humidity
    00:00 +12°C° 0 mm 3 mps 742 mmHg 92%
    01:00 +12°C° 0 mm 3 mps 742 mmHg 93%
    02:00 +12°C° 0 mm 3 mps 742 mmHg 95%
    03:00 +11°C° 0 mm 3 mps 743 mmHg 95%
    04:00 +11°C° 0 mm 3 mps 743 mmHg 95%
    05:00 +11°C° 0 mm 3 mps 743 mmHg 94%
    06:00 +13°C° 0 mm 3 mps 744 mmHg 89%
    07:00 +16°C° 0 mm 3 mps 744 mmHg 84%
    08:00 +17°C° 0 mm 3 mps 744 mmHg 79%
    09:00 +19°C° 0 mm 4 mps 745 mmHg 74%
    10:00 +20°C° 0 mm 4 mps 745 mmHg 68%
    11:00 +22°C° 0 mm 4 mps 745 mmHg 62%
    12:00 +22°C° 0 mm 5 mps 745 mmHg 61%
    13:00 +22°C° 0 mm 5 mps 745 mmHg 60%
    14:00 +23°C° 0 mm 5 mps 745 mmHg 59%
    15:00 +22°C° 0 mm 4 mps 745 mmHg 61%
    16:00 +22°C° 0 mm 4 mps 746 mmHg 64%
    17:00 +22°C° 0 mm 3 mps 746 mmHg 67%
    18:00 +20°C° 0 mm 3 mps 746 mmHg 72%
    19:00 +18°C° 0 mm 3 mps 746 mmHg 77%
    20:00 +17°C° 0 mm 3 mps 746 mmHg 83%
    21:00 +16°C° 0 mm 3 mps 746 mmHg 85%
    22:00 +14°C° 0 mm 3 mps 746 mmHg 88%
    23:00 +14°C° 0 mm 2 mps 747 mmHg 91%

    Day after tomorrow, 21 July, Sunday

    Time Temperature Precipitation Wind Pressure Humidity
    00:00 +14°C° 0 mm 2 mps 747 mmHg 92%
    01:00 +14°C° 0 mm 2 mps 747 mmHg 93%
    02:00 +13°C° 0 mm 2 mps 747 mmHg 94%
    03:00 +13°C° 0 mm 2 mps 747 mmHg 94%
    04:00 +13°C° 0 mm 1 mps 747 mmHg 94%
    05:00 +13°C° 0 mm 1 mps 747 mmHg 94%
    06:00 +15°C° 0 mm 1 mps 747 mmHg 88%
    07:00 +18°C° 0 mm 1 mps 748 mmHg 82%
    08:00 +20°C° 0 mm 1 mps 748 mmHg 76%
    09:00 +21°C° 0 mm 1 mps 748 mmHg 71%
    10:00 +23°C° 0 mm 1 mps 748 mmHg 66%
    11:00 +24°C° 0 mm 2 mps 748 mmHg 60%
    12:00 +24°C° 0 mm 2 mps 748 mmHg 59%
    13:00 +25°C° 0 mm 2 mps 748 mmHg 58%
    14:00 +25°C° 0 mm 2 mps 747 mmHg 57%
    15:00 +25°C° 0 mm 2 mps 747 mmHg 59%
    16:00 +25°C° 0 mm 2 mps 747 mmHg 62%
    17:00 +25°C° 0 mm 1 mps 747 mmHg 64%
    18:00 +23°C° 0 mm 1 mps 747 mmHg 70%
    19:00 +21°C° 0 mm 1 mps 747 mmHg 76%
    20:00 +17°C° 0 mm 0 mps 747 mmHg 83%
    21:00 +16°C° 0 mm 0 mps 747 mmHg 84%
    22:00 +16°C° 0 mm 0 mps 747 mmHg 85%
    23:00 +16°C° 0 mm 1 mps 747 mmHg 86%

    22 July, Monday

    Time Temperature Precipitation Wind Pressure Humidity
    00:00 +16°C° 0 mm 1 mps 747 mmHg 88%
    01:00 +15°C° 0 mm 1 mps 746 mmHg 89%
    02:00 +15°C° 0 mm 1 mps 746 mmHg 90%
    03:00 +15°C° 0 mm 1 mps 746 mmHg 90%
    04:00 +15°C° 0 mm 2 mps 746 mmHg 90%
    05:00 +15°C° 0 mm 2 mps 745 mmHg 90%
    06:00 +17°C° 0 mm 2 mps 745 mmHg 87%
    07:00 +18°C° 0 mm 2 mps 745 mmHg 84%
    08:00 +20°C° 0 mm 2 mps 745 mmHg 81%
    09:00 +20°C° 0.6 mm 3 mps 745 mmHg 83%
    10:00 +20°C° 0.6 mm 3 mps 744 mmHg 84%
    11:00 +20°C° 0.6 mm 3 mps 744 mmHg 86%
    12:00 +20°C° 0.2 mm 2 mps 744 mmHg 88%
    13:00 +20°C° 0.2 mm 1 mps 744 mmHg 90%
    14:00 +20°C° 0.2 mm 1 mps 744 mmHg 92%
    15:00 +19°C° 1.2 mm 1 mps 744 mmHg 93%
    16:00 +19°C° 1.2 mm 1 mps 744 mmHg 95%
    17:00 +18°C° 1.2 mm 2 mps 743 mmHg 96%
    18:00 +18°C° 0 mm 2 mps 743 mmHg 96%
    19:00 +17°C° 0 mm 2 mps 743 mmHg 96%
    20:00 +17°C° 0 mm 2 mps 743 mmHg 97%
    21:00 +17°C° 0 mm 2 mps 743 mmHg 97%
    22:00 +17°C° 0 mm 2 mps 743 mmHg 97%
    23:00 +16°C° 0 mm 2 mps 742 mmHg 97%

    23 July, Tuesday

    Time Temperature Precipitation Wind Pressure Humidity
    00:00 +16°C° 0.3 mm 2 mps 742 mmHg 98%
    01:00 +16°C° 0.3 mm 2 mps 742 mmHg 98%
    02:00 +16°C° 0.3 mm 2 mps 742 mmHg 98%
    03:00 +16°C° 0.2 mm 2 mps 742 mmHg 98%
    04:00 +16°C° 0.2 mm 3 mps 742 mmHg 98%
    05:00 +16°C° 0.2 mm 3 mps 742 mmHg 98%
    06:00 +16°C° 0.1 mm 3 mps 742 mmHg 97%
    07:00 +16°C° 0.1 mm 3 mps 742 mmHg 97%
    08:00 +15°C° 0.1 mm 4 mps 742 mmHg 96%
    09:00 +16°C° 0.1 mm 3 mps 743 mmHg 94%
    10:00 +17°C° 0.1 mm 3 mps 743 mmHg 92%
    11:00 +17°C° 0.1 mm 2 mps 743 mmHg 91%
    12:00 +19°C° 0.1 mm 2 mps 743 mmHg 84%
    13:00 +20°C° 0.1 mm 2 mps 743 mmHg 77%
    14:00 +21°C° 0.1 mm 2 mps 744 mmHg 70%
    15:00 +21°C° 0.1 mm 2 mps 744 mmHg 70%
    16:00 +23°C° 0.1 mm 2 mps 744 mmHg 71%
    17:00 +23°C° 0.1 mm 2 mps 744 mmHg 71%
    18:00 +21°C° 0.1 mm 2 mps 744 mmHg 75%
    19:00 +19°C° 0.1 mm 2 mps 744 mmHg 79%
    20:00 +18°C° 0.1 mm 1 mps 744 mmHg 83%
    21:00 +16°C° 0 mm 2 mps 744 mmHg 85%
    22:00 +16°C° 0 mm 2 mps 744 mmHg 88%
    23:00 +15°C° 0 mm 2 mps 744 mmHg 91%

    24 July, Wednesday

    Time Temperature Precipitation Wind Pressure Humidity
    00:00 +14°C° 0 mm 2 mps 744 mmHg 91%
    01:00 +14°C° 0 mm 2 mps 744 mmHg 91%
    02:00 +13°C° 0 mm 2 mps 743 mmHg 91%
    03:00 +12°C° 0 mm 3 mps 743 mmHg 91%
    04:00 +12°C° 0 mm 3 mps 743 mmHg 91%
    05:00 +11°C° 0 mm 3 mps 743 mmHg 91%
    06:00 +13°C° 0 mm 3 mps 743 mmHg 86%
    07:00 +14°C° 0 mm 4 mps 744 mmHg 81%
    08:00 +15°C° 0 mm 4 mps 744 mmHg 76%
    09:00 +17°C° 0 mm 4 mps 744 mmHg 73%
    10:00 +19°C° 0 mm 4 mps 744 mmHg 70%
    11:00 +20°C° 0 mm 4 mps 744 mmHg 66%
    12:00 +20°C° 0.1 mm 4 mps 744 mmHg 67%
    13:00 +20°C° 0.1 mm 4 mps 743 mmHg 67%
    14:00 +20°C° 0.1 mm 4 mps 743 mmHg 68%
    15:00 +20°C° 0.3 mm 4 mps 743 mmHg 72%
    16:00 +20°C° 0.3 mm 4 mps 743 mmHg 75%
    17:00 +19°C° 0.3 mm 3 mps 743 mmHg 79%
    18:00 +18°C° 0.1 mm 3 mps 743 mmHg 83%
    19:00 +17°C° 0.1 mm 3 mps 743 mmHg 87%
    20:00 +16°C° 0.1 mm 3 mps 743 mmHg 91%
    21:00 +16°C° 0 mm 3 mps 743 mmHg 92%
    22:00 +16°C° 0 mm 3 mps 743 mmHg 93%
    23:00 +14°C° 0 mm 3 mps 743 mmHg 94%
    Show more